Regional Weather Roundup
Issued by NWS Little Rock, AR

Home | Current Version | Previous Version | Graphics & Text | Print | Product List | Glossary On
Versions: 1 2 3 4 5 6 7 8 9 10 11 12 13 14 15 16 17 18 19 20 21 22 23 24 25 26 27
000
ASUS44 KLZK 241005
RWRLZK

WEATHER ROUNDUP FOR ARKANSAS
NATIONAL WEATHER SERVICE LITTLE ROCK AR
500 AM CDT FRI OCT 24 2014

NOTE: "FAIR" INDICATES FEW OR NO CLOUDS BELOW 12,000 FEET WITH NO
SIGNIFICANT WEATHER AND/OR OBSTRUCTIONS TO VISIBILITY.

ARZ001-003-010-029-241100-
NORTHWEST ARKANSAS

CITY           SKY/WX    TMP DP  RH WIND       PRES   REMARKS
FAYETTEVILLE   CLEAR     46  46 100 CALM      30.14R
FORT SMITH     CLEAR     53  51  93 NE3       30.14R
HARRISON       CLEAR     49  48  97 CALM      30.13S
BENTONVILLE    CLEAR     48  46  93 CALM      30.13S
ROGERS         CLEAR     50  49  96 SE3       30.14S
SILOAM SPGS    CLEAR     50  45  81 CALM      30.14S
HIGHFILL       CLEAR     49  48  97 CALM      30.13R
$$

ARZ004-005-016-241100-
NORTH CENTRAL ARKANSAS

CITY           SKY/WX    TMP DP  RH WIND       PRES   REMARKS
BATESVILLE     CLEAR     45  43  93 CALM      30.14R
FLIPPIN          N/A     46  43  87 CALM      30.13S VSB 1/2
MTN HOME       CLEAR     48  47  96 CALM      30.12R
$$

ARZ040-041-241100-
WEST CENTRAL ARKANSAS

CITY           SKY/WX    TMP DP  RH WIND       PRES   REMARKS
MENA           CLEAR     50  48  93 CALM      30.15S
MOUNT IDA      CLEAR     47  46  97 CALM      30.13R
$$

ARZ009-017-025-026-028-241100-
NORTHEAST ARKANSAS

CITY           SKY/WX    TMP DP  RH WIND       PRES   REMARKS
CORNING        CLOUDY    46  46 100 SE3       30.14S FOG
JONESBORO      CLEAR     45  44  97 CALM      30.13S
NEWPORT        CLEAR     45  45 100 CALM      30.15S FOG
WALNUT RIDGE   PTCLDY    45  41  87 CALM      30.14S
BLYTHEVILLE    CLEAR     44  43  96 CALM      30.14S
$$

ARZ022-023-033-042-044-241100-
CENTRAL ARKANSAS

CITY           SKY/WX    TMP DP  RH WIND       PRES   REMARKS
LITTLE ROCK    CLEAR     49  46  90 SW3       30.15F
N LITTLE ROCK    N/A     51  49  94 SW3       30.15F
JACKSONVILLE   CLEAR     45  44  97 CALM      30.14F
SEARCY         CLEAR     45  45 100 CALM      30.16S FOG
HOT SPRINGS    CLEAR     48  46  93 CALM      30.16R
RUSSELLVILLE   CLEAR     47  45  93 CALM      30.14S
$$

ARZ036-241100-
EAST ARKANSAS

CITY           SKY/WX    TMP DP  RH WIND       PRES   REMARKS
WEST MEMPHIS   CLEAR     44  44 100 CALM      30.13S FOG
$$

ARZ050-053-066-070-073-241100-
SOUTHWEST ARKANSAS

CITY           SKY/WX    TMP DP  RH WIND       PRES   REMARKS
ARKADELPHIA    FOG       48  48 100 CALM      30.16S VSB 3/4
CAMDEN         PTCLDY    43  41  93 CALM      30.16S FOG
TEXARKANA      CLEAR     50  49  96 E3        30.15S
EL DORADO      CLEAR     45  43  93 CALM      30.16R
DE QUEEN       FOG       48  48 100 CALM      30.14R VSB 1/4
$$

ARZ056-057-069-241100-
SOUTHEAST ARKANSAS

CITY           SKY/WX    TMP DP  RH WIND       PRES   REMARKS
PINE BLUFF     CLEAR     46  44  93 CALM      30.15S
STUTTGART      CLEAR     48  45  87 CALM      30.15S
MONTICELLO     CLEAR     44  42  93 CALM      30.14S

$$





USA.gov is the U.S. government's official web portal to all federal, state and local government web resources and services.